Hourly Weather Kozlowek

Today, 29 October, Thursday

Time Temperature Precipitation Wind Pressure Humidity
00:00 +11°C° 0 mm 1 mps 741 mmHg 92%
01:00 +11°C° 0 mm 1 mps 740 mmHg 93%
02:00 +11°C° 0.1 mm 1 mps 740 mmHg 93%
03:00 +11°C° 0.1 mm 1 mps 740 mmHg 94%
04:00 +11°C° 0.1 mm 1 mps 740 mmHg 94%
05:00 +11°C° 0 mm 1 mps 740 mmHg 94%
06:00 +11°C° 0 mm 1 mps 740 mmHg 94%
07:00 +11°C° 0 mm 1 mps 740 mmHg 94%
08:00 +12°C° 0 mm 2 mps 740 mmHg 89%
09:00 +13°C° 0 mm 2 mps 740 mmHg 83%
10:00 +13°C° 0 mm 3 mps 740 mmHg 78%
11:00 +14°C° 0 mm 3 mps 740 mmHg 73%
12:00 +14°C° 0 mm 3 mps 740 mmHg 68%
13:00 +16°C° 0 mm 3 mps 740 mmHg 63%
14:00 +14°C° 0.2 mm 3 mps 740 mmHg 68%
15:00 +13°C° 0.2 mm 3 mps 740 mmHg 73%
16:00 +12°C° 0.2 mm 3 mps 740 mmHg 77%
17:00 +12°C° 0.2 mm 3 mps 740 mmHg 79%
18:00 +11°C° 0.2 mm 3 mps 740 mmHg 81%
19:00 +11°C° 0.2 mm 4 mps 741 mmHg 84%
20:00 +11°C° 0.2 mm 3 mps 741 mmHg 83%
21:00 +10°C° 0.2 mm 3 mps 741 mmHg 82%
22:00 +10°C° 0.2 mm 3 mps 741 mmHg 82%
23:00 +9°C° 0.1 mm 3 mps 742 mmHg 81%

Tomorrow, 30 October, Friday

Time Temperature Precipitation Wind Pressure Humidity
00:00 +8°C° 0.1 mm 3 mps 742 mmHg 81%
01:00 +8°C° 0.1 mm 3 mps 743 mmHg 81%
02:00 +7°C° 0 mm 3 mps 743 mmHg 83%
03:00 +5°C° 0 mm 3 mps 743 mmHg 86%
04:00 +5°C° 0 mm 3 mps 743 mmHg 88%
05:00 +6°C° 0 mm 2 mps 743 mmHg 88%
06:00 +5°C° 0 mm 2 mps 743 mmHg 88%
07:00 +5°C° 0 mm 2 mps 744 mmHg 88%
08:00 +7°C° 0 mm 2 mps 744 mmHg 81%
09:00 +8°C° 0 mm 2 mps 744 mmHg 74%
10:00 +10°C° 0 mm 2 mps 744 mmHg 67%
11:00 +10°C° 0 mm 3 mps 743 mmHg 65%
12:00 +11°C° 0 mm 3 mps 743 mmHg 63%
13:00 +11°C° 0 mm 4 mps 743 mmHg 61%
14:00 +10°C° 0.1 mm 4 mps 742 mmHg 68%
15:00 +10°C° 0.1 mm 4 mps 742 mmHg 74%
16:00 +9°C° 0.1 mm 3 mps 741 mmHg 80%
17:00 +8°C° 0.6 mm 4 mps 741 mmHg 83%
18:00 +8°C° 0.6 mm 4 mps 741 mmHg 86%
19:00 +8°C° 0.6 mm 4 mps 741 mmHg 89%
20:00 +8°C° 1.2 mm 5 mps 740 mmHg 90%
21:00 +9°C° 1.2 mm 5 mps 740 mmHg 91%
22:00 +9°C° 1.2 mm 6 mps 740 mmHg 92%
23:00 +9°C° 2 mm 5 mps 740 mmHg 94%

Day after tomorrow, 31 October, Saturday

Time Temperature Precipitation Wind Pressure Humidity
00:00 +9°C° 2 mm 5 mps 740 mmHg 95%
01:00 +10°C° 2 mm 5 mps 740 mmHg 96%
02:00 +10°C° 1.3 mm 4 mps 740 mmHg 95%
03:00 +8°C° 1.3 mm 4 mps 740 mmHg 95%
04:00 +9°C° 1.3 mm 3 mps 741 mmHg 94%
05:00 +8°C° 0.1 mm 3 mps 741 mmHg 95%
06:00 +7°C° 0.1 mm 2 mps 742 mmHg 96%
07:00 +7°C° 0.1 mm 2 mps 742 mmHg 97%
08:00 +8°C° 0 mm 2 mps 743 mmHg 91%
09:00 +9°C° 0 mm 2 mps 743 mmHg 85%
10:00 +10°C° 0 mm 3 mps 744 mmHg 79%
11:00 +10°C° 0 mm 3 mps 744 mmHg 76%
12:00 +10°C° 0 mm 3 mps 744 mmHg 73%
13:00 +11°C° 0 mm 4 mps 744 mmHg 70%
14:00 +10°C° 0 mm 3 mps 744 mmHg 73%
15:00 +10°C° 0 mm 3 mps 744 mmHg 76%
16:00 +9°C° 0 mm 2 mps 745 mmHg 79%
17:00 +9°C° 0.1 mm 2 mps 745 mmHg 82%
18:00 +8°C° 0.1 mm 2 mps 746 mmHg 84%
19:00 +8°C° 0.1 mm 2 mps 746 mmHg 86%
20:00 +7°C° 0 mm 2 mps 746 mmHg 87%
21:00 +7°C° 0 mm 1 mps 746 mmHg 89%
22:00 +6°C° 0 mm 1 mps 746 mmHg 90%
23:00 +6°C° 0 mm 1 mps 746 mmHg 91%

1 November, Sunday

Time Temperature Precipitation Wind Pressure Humidity
00:00 +5°C° 0 mm 0 mps 747 mmHg 92%
01:00 +4°C° 0 mm 0 mps 747 mmHg 92%
02:00 +4°C° 0 mm 0 mps 747 mmHg 93%
03:00 +4°C° 0 mm 0 mps 747 mmHg 93%
04:00 +4°C° 0 mm 0 mps 747 mmHg 94%
05:00 +4°C° 0 mm 0 mps 747 mmHg 94%
06:00 +4°C° 0 mm 0 mps 747 mmHg 94%
07:00 +4°C° 0 mm 0 mps 747 mmHg 95%
08:00 +6°C° 0 mm 1 mps 747 mmHg 89%
09:00 +7°C° 0 mm 1 mps 747 mmHg 84%
10:00 +9°C° 0 mm 1 mps 747 mmHg 78%
11:00 +10°C° 0 mm 1 mps 747 mmHg 73%
12:00 +10°C° 0 mm 1 mps 746 mmHg 69%
13:00 +11°C° 0 mm 1 mps 746 mmHg 64%
14:00 +9°C° 0 mm 2 mps 746 mmHg 69%
15:00 +8°C° 0 mm 2 mps 746 mmHg 75%
16:00 +8°C° 0 mm 2 mps 746 mmHg 80%
17:00 +7°C° 0 mm 2 mps 746 mmHg 83%
18:00 +6°C° 0 mm 2 mps 746 mmHg 86%
19:00 +6°C° 0 mm 2 mps 746 mmHg 89%
20:00 +6°C° 0 mm 2 mps 746 mmHg 89%
21:00 +5°C° 0 mm 2 mps 746 mmHg 89%
22:00 +5°C° 0 mm 2 mps 745 mmHg 90%
23:00 +5°C° 0 mm 2 mps 745 mmHg 89%

2 November, Monday

Time Temperature Precipitation Wind Pressure Humidity
00:00 +5°C° 0 mm 2 mps 745 mmHg 89%
01:00 +5°C° 0 mm 2 mps 745 mmHg 89%
02:00 +4°C° 0 mm 2 mps 745 mmHg 89%
03:00 +4°C° 0 mm 2 mps 745 mmHg 89%
04:00 +4°C° 0 mm 2 mps 745 mmHg 89%
05:00 +4°C° 0 mm 2 mps 745 mmHg 89%
06:00 +5°C° 0 mm 1 mps 745 mmHg 89%
07:00 +5°C° 0 mm 1 mps 745 mmHg 89%
08:00 +7°C° 0 mm 1 mps 745 mmHg 82%
09:00 +7°C° 0 mm 2 mps 745 mmHg 75%
10:00 +9°C° 0 mm 2 mps 745 mmHg 69%
11:00 +10°C° 0 mm 2 mps 745 mmHg 66%
12:00 +12°C° 0 mm 2 mps 745 mmHg 63%
13:00 +13°C° 0 mm 2 mps 744 mmHg 61%
14:00 +12°C° 0 mm 2 mps 744 mmHg 67%
15:00 +10°C° 0 mm 2 mps 744 mmHg 74%
16:00 +8°C° 0 mm 2 mps 744 mmHg 80%
17:00 +8°C° 0 mm 2 mps 744 mmHg 83%
18:00 +7°C° 0 mm 2 mps 744 mmHg 85%
19:00 +6°C° 0 mm 2 mps 744 mmHg 88%
20:00 +6°C° 0 mm 2 mps 744 mmHg 89%
21:00 +6°C° 0 mm 2 mps 744 mmHg 89%
22:00 +5°C° 0 mm 2 mps 744 mmHg 90%
23:00 +5°C° 0 mm 2 mps 744 mmHg 90%

3 November, Tuesday

Time Temperature Precipitation Wind Pressure Humidity
00:00 +5°C° 0 mm 2 mps 744 mmHg 91%
01:00 +5°C° 0 mm 2 mps 743 mmHg 91%
02:00 +4°C° 0 mm 2 mps 743 mmHg 91%
03:00 +4°C° 0 mm 2 mps 743 mmHg 92%
04:00 +4°C° 0 mm 2 mps 743 mmHg 92%
05:00 +4°C° 0 mm 2 mps 743 mmHg 92%
06:00 +4°C° 0 mm 2 mps 744 mmHg 93%
07:00 +4°C° 0 mm 2 mps 744 mmHg 93%
08:00 +5°C° 0 mm 2 mps 744 mmHg 87%
09:00 +7°C° 0 mm 3 mps 744 mmHg 80%
10:00 +9°C° 0 mm 3 mps 744 mmHg 74%
11:00 +10°C° 0 mm 3 mps 744 mmHg 72%
12:00 +10°C° 0 mm 3 mps 743 mmHg 69%
13:00 +11°C° 0 mm 3 mps 743 mmHg 67%
14:00 +10°C° 0 mm 3 mps 743 mmHg 72%
15:00 +9°C° 0 mm 3 mps 743 mmHg 78%
16:00 +8°C° 0 mm 2 mps 743 mmHg 84%
17:00 +7°C° 0 mm 2 mps 744 mmHg 86%
18:00 +7°C° 0 mm 2 mps 744 mmHg 88%
19:00 +6°C° 0 mm 2 mps 744 mmHg 90%
20:00 +6°C° 0 mm 2 mps 744 mmHg 90%
21:00 +5°C° 0 mm 2 mps 744 mmHg 90%
22:00 +5°C° 0 mm 2 mps 744 mmHg 91%
23:00 +5°C° 0 mm 2 mps 744 mmHg 91%
Show more